Location: ???????
(54.9996°N, 37.9529°E)
Time: 13:40:59
(UTC+00:00)

COSMOS 2251 DEB - Visible Passes

Search period start: 14 September 2024 00:00
Search period end: 24 September 2024 00:00
Orbit: 476 x 522 km, 74.0° (Epoch: 13 September)

Date Brightness Start Highest point End Pass type
(mag) Time Alt. Az. Time Alt. Az. Time Alt. Az.
14 Sep ? 21:59:52 13° NE 21:59:52 13° NE 22:00:22 10° NE visible
14 Sep ? 23:34:29 25° NNW 23:34:29 25° NNW 23:36:38 10° NNE visible
15 Sep ? 23:13:25 24° N 23:13:25 24° N 23:15:11 10° NNE visible
16 Sep ? 22:51:45 21° N 22:51:45 21° N 22:53:08 10° NNE visible
17 Sep ? 00:26:17 10° NW 00:26:42 10° NW 00:27:21 10° NNW visible
17 Sep ? 22:29:29 17° NNE 22:29:29 17° NNE 22:30:28 10° NNE visible
18 Sep ? 00:03:58 12° NW 00:03:58 12° NW 00:05:15 10° NNW visible
18 Sep ? 22:06:37 14° NNE 22:06:37 14° NNE 22:07:11 10° NNE visible
18 Sep ? 23:41:04 13° NNW 23:41:04 13° NNW 23:42:15 10° N visible
19 Sep ? 21:43:09 11° NNE 21:43:09 11° NNE 21:43:17 10° NNE visible
19 Sep ? 23:17:34 14° NNW 23:17:34 14° NNW 23:18:34 10° N visible
20 Sep ? 22:53:29 13° N 22:53:29 13° N 22:54:15 10° N visible
21 Sep ? 22:28:48 12° N 22:28:48 12° N 22:29:17 10° N visible
22 Sep ? 22:03:31 11° N 22:03:31 11° N 22:03:42 10° N visible
